Aérodrome :
LOGIN :

S'inscrire | Disclaimer

   EN    FR    IT 

 










Légende :    VFR   VFR Marginal   IFR   IFR Intensif   IFR Très Intensif
Visi : 
Plafond : 
>= 8 km
>= 3000ft
5 à 8 km
1000 à 3000 ft
1500m à 5 km
500 à 1000 ft
800 à 1500m
200 à 500 ft
< 800m
< 200 ft
Symboles :   Orages  Brouillard  Fortes neiges  Fortes précipitations  Vent > 20 kt
SIGMETs :   Divers  Orages  Givrage  Turbulence  Onde Orograph.  Cendres Volcan.







- Altitude de l'aérodrome : 675 ft
- Code IATA : RZE


EPRZ - Rzeszow-Jasionka

DERNIER METAR :
  • 210530Z 28008KT CAVOK 19/16 Q1018

METARs EXPIRÉS :
  • 210500Z 28009KT CAVOK 19/15 Q1018
  • 210430Z 27008KT CAVOK 18/16 Q1018
  • 210400Z 27007KT CAVOK 18/15 Q1018
  • 210330Z 27010KT CAVOK 18/16 Q1017
  • 210300Z 26009KT CAVOK 17/15 Q1017

TAF TAF EPRZ
Valide du 21 à 00h jusqu'au 22 à 00h UTC


202330Z 2100/2124 26006KT CAVOK
BECMG 2106/2108 32010KT
PROB30
TEMPO 2109/2115 SHRA BKN033CB
BECMG 2117/2120 02004KT
Pas de NOTAMs connus pour ce terrain.



MET'MAP, la Météo Aéronautique d'un coup d'oeil ! - Copyright ORBIFLY Décembre 2007 - Disclaimer

ORBIFLY MET'MAP TEAM :

Programmation & Développement : Alexandra Zaïnal
Conception & Développement : Baudouin d'Aumeries
Co-Programmation & Développement : Marc-Olivier Méhu
Soutien technique & logistique : Manuel Goepfert

Contact : metmap@orbifly.com




SOURCES & CREDITS :

   NOAA